This is the latest recevied weather packets stored in our database for station/object VE2CSM-13. If no packets are shown the sender has not sent any weather packets the latest 10 day(s).
| Time | Temp. | Humidity | Pressure | Rain* | Wind** | Luminosity | Snow |
|---|---|---|---|---|---|---|---|
| 1777350996 | 10° C | 59% | 1032.5 hPa | 0 mm | - | - | - |
| 1777349197 | 11.67° C | 52% | 1032.5 hPa | 0 mm | - | - | - |
| 1777345597 | 11.67° C | 50% | 1032.7 hPa | 0 mm | - | - | - |
| 1777341997 | 11.67° C | 50% | 1033 hPa | 0 mm | - | - | - |
| 1777338397 | 13.89° C | 43% | 1033 hPa | 0 mm | - | - | - |
| 1777334797 | 16.11° C | 43% | 1032.7 hPa | 0 mm | - | - | - |
| 1777331197 | 20° C | 29% | 1032.3 hPa | 0 mm | - | - | - |
| 1777327597 | 21.67° C | 29% | 1032.9 hPa | 0 mm | - | - | - |
| 1777323998 | 22.78° C | 25% | 1033 hPa | 0 mm | - | - | - |
| 1777320397 | 22.78° C | 24% | 1033.4 hPa | 0 mm | - | - | - |
| 1777316797 | 22.78° C | 27% | 1033.9 hPa | 0 mm | - | - | - |
| 1777313197 | 22.22° C | 25% | 1034.4 hPa | 0 mm | - | - | - |
| 1777311396 | 22.22° C | 27% | 1034.7 hPa | 0 mm | - | - | - |
| 1777309597 | 21.11° C | 30% | 1035.1 hPa | 0 mm | - | - | - |
| 1777305997 | 19.44° C | 33% | 1035.6 hPa | 0 mm | - | - | - |
| 1777302397 | 16.67° C | 43% | 1036.1 hPa | 0 mm | - | - | - |
| 1777300596 | 15.56° C | 48% | 1035.9 hPa | 0 mm | - | - | - |
| 1777298797 | 14.44° C | 51% | 1036.3 hPa | 0 mm | - | - | - |
| 1777296996 | 13.89° C | 51% | 1036.4 hPa | 0 mm | - | - | - |
| 1777295197 | 12.22° C | 54% | 1036.5 hPa | 0 mm | - | - | - |
| 1777293396 | 11.11° C | 56% | 1036.4 hPa | 0 mm | - | - | - |
| 1777291598 | 10° C | 60% | 1036.2 hPa | 0 mm | - | - | - |
| 1777287996 | 5.56° C | 71% | 1036.3 hPa | 0 mm | - | - | - |
| 1777286196 | 3.89° C | 79% | 1036.3 hPa | 0 mm | - | - | - |
| 1777284396 | 1.67° C | 86% | 1036 hPa | 0 mm | - | - | - |
* Rain latest hour (hover to see other rain measurements)
** Current wind speed in m/s (hover to see current wind gust speed)